Location: Kra?nica
(53.4833°N, 14.6167°E)
Time: 16:41:00
(UTC+00:00)

Nadezhda 1 Rocket - Pass Details

Date: 23 May 2024
Orbit: 942 x 1004 km, 83.0° (Epoch: 12 June)

Event Time Altitude Azimuth Distance (km) Brightness Sun altitude
Rises 01:03:45 0° 346° (NNW) 3,744 7.8 -11.1°
Reaches altitude 10° 01:06:21 10° 342° (NNW) 2,791 7.0 -10.9°
Maximum altitude 01:12:29 49° 270° (W) 1,276 4.4 -10.4°
Enters shadow 01:18:18 11° 198° (SSW) 2,674 5.7 -10.0°
